Wind_Speed
84 82 86 90 93 89 92 93 93 93 92 89 84 65 59 55 51 49 48 49 48 50 55 58 57 56 54 49 43 40 36 35
83 85 87 88 92 90 93 96 94 91 87 83 59 58 54 47 50 48 50 49 50 55 58 57 56 53 44 40 38 39 39 36
87 87 87 89 90 91 89 93 90 88 80 69 62 53 51 50 53 53 51 53 55 56 55 54 51 45 44 40 39 42 41 39
86 87 86 88 89 89 88 83 80 79 70 63 54 56 56 53 48 47 52 56 52 46 44 46 46 47 46 42 42 42 43 42
81 84 88 88 83 85 77 78 79 66 59 57 60 57 53 47 49 53 56 52 51 50 49 50 48 47 48 50 49 47 44 44
83 78 80 83 76 74 79 70 62 61 58 62 58 58 55 55 51 56 56 55 54 52 46 51 54 52 52 50 47 47 49 50
81 83 80 85 80 74 65 53 55 57 59 58 58 58 59 59 59 59 61 61 54 53 54 57 57 57 56 56 55 55 56 54
81 81 82 78 76 64 60 53 56 60 60 62 61 63 64 61 60 60 60 59 56 56 56 57 58 59 60 60 60 61 60 58
76 75 73 63 57 55 58 57 56 60 62 64 64 62 62 62 64 65 64 61 59 59 60 61 60 62 62 63 65 65 65 63
75 65 48 41 36 40 49 59 60 63 63 62 63 64 63 68 71 69 68 62 61 64 65 65 65 65 67 69 70 70 70 68
49 36 32 33 43 55 64 68 67 66 65 64 64 65 69 72 72 72 68 67 68 69 70 70 69 70 73 75 77 77 77 76
40 37 37 45 56 68 73 72 71 74 71 70 70 71 72 74 74 71 72 73 73 75 76 78 80 81 81 80 81 84 86 84
41 42 48 53 61 67 70 74 77 77 74 74 75 77 78 76 75 75 76 77 79 80 82 85 89 90 90 88 87 88 90 91
52 54 54 56 63 69 73 75 74 76 77 77 78 77 77 77 79 80 82 86 89 90 92 93 95 97 96 96 94 97 100 102
52 53 53 55 58 62 65 69 73 75 75 76 78 79 80 82 86 88 91 94 98 101 103 105 106 108 109 109 108 107 107 113
50 50 49 53 57 61 65 70 72 73 75 79 81 82 85 88 93 96 101 105 109 112 115 118 120 122 124 125 127 126 125 122
47 49 53 58 61 65 67 69 72 75 78 80 83 86 90 96 101 106 109 112 118 122 126 128 129 130 129 126 124 124 121 116
50 53 57 61 63 66 69 71 73 76 78 83 89 96 101 103 109 114 118 122 125 129 129 130 130 129 128 126 123 120 118 116
55 57 59 62 66 69 71 74 77 81 85 89 94 99 103 109 115 118 123 128 130 130 131 129 129 128 125 124 119 112 106 100
56 58 61 65 68 71 72 75 78 83 87 92 99 103 109 115 122 126 130 131 130 129 125 124 122 121 119 111 105 99 95 91
Wind_Direction
283 281 282 284 288 292 295 297 299 304 302 301 298 294 295 297 295 291 287 288 294 295 297 298 300 302 303 300 294 293 295 293
280 282 284 286 291 295 293 297 300 300 298 298 290 292 295 294 293 292 292 294 295 295 295 296 298 301 300 297 293 293 292 293
281 285 289 290 291 295 295 295 299 296 291 288 290 293 293 292 292 292 293 295 297 295 295 294 294 295 298 295 293 291 291 291
284 288 288 291 291 293 296 294 293 292 286 287 288 288 287 291 293 295 295 297 299 297 297 296 296 297 296 294 291 289 290 289
284 285 286 290 290 294 297 295 291 283 286 287 287 289 293 295 294 296 296 296 298 295 294 296 295 295 293 294 293 290 289 290
286 286 287 289 293 291 295 287 287 287 284 284 287 292 292 295 291 292 299 296 296 292 294 295 295 292 292 290 288 289 292 290
281 285 289 291 290 290 286 283 284 286 287 289 292 294 295 294 292 293 293 298 294 292 297 299 297 295 294 293 291 289 288 287
283 285 288 293 293 288 287 287 286 286 287 290 289 291 292 291 296 297 300 296 289 291 297 298 296 293 292 292 291 290 287 284
286 288 291 289 294 293 288 288 288 288 288 287 288 289 291 288 291 295 297 292 288 287 289 290 291 290 289 290 290 290 288 287
282 287 291 293 291 288 286 287 286 284 286 286 287 287 286 289 291 294 295 291 289 288 289 290 290 288 287 286 285 284 283 282
281 280 278 276 267 274 278 282 281 280 282 285 286 288 288 289 291 292 289 289 290 291 292 291 290 291 289 286 285 283 280 279
270 266 269 260 264 271 276 281 283 284 285 287 289 289 290 290 290 287 286 288 290 290 287 286 286 287 286 284 282 279 278 277
273 268 263 258 263 270 275 280 283 284 288 290 291 292 292 290 290 292 292 292 291 289 288 286 284 283 282 280 278 277 275 275
271 270 266 265 269 270 275 277 281 285 288 291 290 289 289 291 293 294 294 293 291 290 289 288 287 285 284 282 279 279 279 278
275 270 272 274 273 274 278 281 285 288 290 290 289 290 291 292 291 291 291 291 291 292 292 291 291 291 289 288 285 282 280 280
279 278 281 280 280 281 283 284 286 287 289 291 292 291 291 292 292 292 292 294 296 296 297 298 298 297 297 295 292 289 285 281
286 285 284 283 284 284 285 287 288 291 293 294 295 295 294 294 295 296 298 301 302 302 301 300 298 296 293 290 288 286 285 282
293 290 288 288 289 291 291 293 295 296 296 297 299 301 301 301 302 303 303 302 302 300 298 297 296 296 294 293 292 289 287 286
295 294 295 294 293 294 296 298 298 300 302 302 301 300 302 303 303 301 300 300 299 299 300 299 297 296 295 293 293 291 288 285
299 299 300 300 300 301 301 301 302 302 300 299 300 300 299 300 300 299 298 299 301 300 299 297 296 295 294 294 292 291 288 286
Height
10780 10777 10772 10767 10763 10757 10751 10746 10741 10735 10729 10722 10714 10706 10699 10695 10690 10688 10685 10682 10678 10675 10672 10668 10664 10661 10658 10656 10653 10648 10646 10643
10769 10765 10760 10756 10751 10745 10740 10736 10732 10724 10717 10710 10703 10695 10690 10686 10683 10678 10677 10674 10670 10667 10663 10659 10654 10651 10648 10647 10644 10641 10638 10637
10758 10753 10746 10743 10737 10734 10730 10726 10720 10711 10705 10696 10691 10685 10681 10678 10674 10669 10666 10664 10661 10657 10653 10649 10646 10642 10640 10638 10636 10633 10631 10629
10747 10741 10734 10731 10727 10722 10719 10712 10706 10700 10691 10685 10681 10676 10673 10669 10664 10661 10656 10654 10651 10647 10643 10640 10637 10634 10630 10628 10628 10626 10623 10622
10736 10730 10725 10722 10717 10711 10707 10699 10692 10686 10678 10674 10670 10667 10664 10659 10656 10653 10647 10643 10641 10638 10634 10632 10629 10625 10623 10620 10618 10616 10614 10613
10725 10720 10715 10709 10704 10699 10692 10685 10678 10675 10670 10663 10659 10656 10654 10651 10647 10642 10638 10634 10629 10626 10623 10622 10618 10616 10613 10610 10608 10606 10605 10603
10716 10707 10700 10698 10694 10685 10678 10674 10669 10662 10660 10655 10649 10645 10643 10639 10636 10633 10629 10623 10617 10614 10612 10609 10604 10602 10600 10598 10597 10596 10595 10593
10701 10693 10690 10688 10680 10670 10663 10662 10658 10653 10648 10644 10640 10634 10631 10628 10626 10622 10621 10616 10609 10605 10601 10597 10593 10588 10583 10583 10581 10580 10580 10580
10685 10683 10683 10676 10669 10661 10655 10649 10646 10642 10638 10633 10628 10625 10621 10618 10615 10611 10607 10604 10599 10596 10592 10589 10584 10579 10574 10570 10567 10564 10563 10563
10676 10676 10676 10669 10660 10651 10643 10634 10635 10631 10627 10625 10621 10616 10611 10607 10602 10597 10592 10588 10584 10579 10576 10573 10569 10566 10560 10556 10552 10548 10545 10545
10668 10670 10670 10662 10651 10640 10633 10627 10623 10621 10618 10616 10612 10606 10601 10594 10588 10583 10579 10575 10571 10565 10558 10555 10553 10550 10545 10540 10535 10530 10526 10527
10662 10661 10658 10648 10639 10625 10619 10616 10611 10606 10604 10601 10598 10592 10585 10578 10573 10568 10563 10558 10553 10549 10545 10540 10536 10533 10528 10523 10516 10509 10504 10506
10653 10649 10642 10637 10631 10623 10614 10606 10599 10593 10592 10586 10579 10572 10564 10558 10553 10547 10542 10539 10534 10528 10523 10519 10511 10508 10505 10502 10495 10487 10478 10477
10639 10636 10633 10629 10623 10614 10605 10597 10591 10582 10576 10571 10563 10554 10548 10540 10533 10527 10522 10515 10508 10503 10497 10491 10484 10478 10475 10472 10473 10464 10452 10445
10628 10626 10623 10620 10611 10601 10594 10586 10577 10569 10562 10553 10544 10537 10531 10523 10514 10506 10499 10492 10483 10476 10467 10459 10453 10446 10436 10434 10433 10432 10429 10415
10616 10614 10610 10602 10596 10589 10581 10573 10564 10554 10546 10537 10528 10521 10512 10501 10491 10482 10473 10464 10452 10440 10430 10418 10406 10396 10386 10377 10370 10367 10369 10376
10605 10601 10595 10588 10581 10574 10566 10557 10548 10540 10530 10519 10507 10498 10488 10476 10465 10455 10442 10428 10412 10398 10386 10375 10364 10353 10345 10337 10328 10319 10308 10306
10590 10585 10579 10572 10565 10557 10549 10540 10531 10521 10509 10497 10484 10469 10456 10449 10432 10419 10408 10397 10385 10371 10358 10343 10325 10308 10294 10282 10274 10269 10264 10255
10572 10567 10563 10555 10546 10539 10531 10522 10511 10499 10488 10476 10462 10450 10440 10427 10413 10399 10383 10369 10355 10338 10321 10306 10286 10267 10251 10239 10229 10221 10216 10212
10559 10552 10545 10536 10529 10522 10513 10503 10494 10483 10473 10463 10449 10437 10423 10407 10391 10374 10355 10335 10322 10302 10286 10268 10253 10233 10215 10206 10195 10184 10177 10172